Weather in Volgo-Kaspiyskiy

Russia / Astrakhan Oblast     46°12′08″N   47°55′02″E
temp.,
°C
wind,
m/s
gust,
m/s
humid.,
%
clouds,
%
prec.,
mm/h
press.,
hPa
HPBL,
m
26 july, mon
mon2601:00+25nw33380 0.0 101736
04:00+24ene49360 0.0 1017204
07:00+26e410320 0.0 1018310
10:00+32ene66230 0.0 10182338
13:00+35ene76171 0.0 10183065
16:00+35ene77165 0.0 10163066
19:00+33e672050 0.0 10172408
22:00+26e363725 0.0 1018135
27 july, tue
tue2701:00+26ne5113176 0.0 1017382
04:00+25e51127100 0.0 1018487
07:00+25ene5928100 0.0 1018542
10:00+27ene7823100 0.0 10181296
13:00+29ene5719100 0.0 10172268
16:00+29nne5620100 0.0 10161378
19:00+27ne3625100 0.0 1016518
22:00+26nnw3426100 0.0 1016199
28 july, wed
wed2801:00+25n3525100 0.0 1016112
04:00+23n3530100 0.0 101699
07:00+24n3629100 0.0 1016197
10:00+29nne4521100 0.0 10162548
13:00+31nne4418100 0.0 10153206
16:00+32nne651922 0.0 10143323
19:00+31nne552013 0.0 10142793
22:00+24sw34393 0.0 101563
29 july, thu
thu2901:00+23w22410 0.0 101525
04:00+24nnw33340 0.0 101424
07:00+26ene01290 0.0 101555
10:00+31nw22210 0.0 10152182
13:00+34nw23175 0.0 10143436
16:00+35wsw231519 0.0 10123535
19:00+31s88255 0.0 10131032
22:00+25s49515 0.0 1014220
30 july, fri
fri3001:00+24ssw47550 0.0 1014155
04:00+23sw34600 0.0 101375
07:00+25w23510 0.0 1015155
10:00+31wsw22230 0.0 10141031
13:00+35ssw13170 0.0 10133227
16:00+35s75180 0.0 10123079
19:00+32s66210 0.0 10121059
22:00+25s46420 0.0 1013137